Idaho Falls Regional Airport
KIDA : now visible

Airfield :











YOU CAN JOIN US ON...

 
LOGIN :

Register | Disclaimer

   EN    FR    IT 

 









Legend :    VFR   Marginal VFR   IFR   Intensive IFR   Very Intensive IFR
Visi :
Ceiling :
>= 8 km
>= 3000ft
5 to 8 km
1000 to 3000 ft
1500m to 5 km
500 to 1000 ft
800 to 1500m
200 to 500 ft
< 800m
< 200 ft
Symbols :   Thunderstorms  Fog  Heavy snow  Heavy precipitations  Wind > 20 kt






- Airport Elevation : 4744 ft
- IATA code : IDA


KIDA - Idaho Falls Regional

CURRENT METAR :
  • 171753Z 01005KT 10SM FEW110 M06/M11 A3017 RMK AO2 SLP274 I6000 T10611106 11061 21133 55000

EXPIRED METARs :
  • 171653Z 36004KT 10SM CLR M08/M12 A3017 RMK AO2 SLP276 T10781117
  • 171553Z 35005KT 10SM CLR M11/M13 A3017 RMK AO2 SLP280 T11061133

TAF KIDA
Valid from the 17 at 18:00 until the 18 at 18:00 UTC


171729Z 1718/1818 36006KT P6SM SCT140
FM180400 VRB05KT P6SM VCFG FEW004 FEW100 SCT240
KZLC FIR / North America



MET'MAP, your aeronautical weather chart ! - Copyright ORBIFLY December 2007 - Disclaimer

ORBIFLY MET'MAP TEAM :

Programming & Development : Alexandra Zaïnal
Concept & original design : Baudouin d'Aumeries
Assistance for programming : Marc-Olivier Méhu
Technical & hardware support : Manuel Goepfert

Contact : metmap@orbifly.com




SOURCES & CREDITS :

   NOAA       Earth
Advisory